| time (UTC) | temp F | wind direction | speed knots | gust knots | rain 1hr in | rain 24hr in | rain mn in | humidity % | barometer mb |
| 20260504120133 | 52 | 202 | 1.7 | 1.7 | 0.00 | 0.00 | 0.00 | 57 | 1008.4 |
| 20260504110601 | 42 | 349 | 0.0 | 0.9 | 0.00 | 0.00 | 0.00 | 83 | 1008.7 |
| 20260504100522 | 42 | 4 | 0.9 | 0.9 | 0.00 | 0.00 | 0.00 | 82 | 1008.6 |
| 20260504081916 | 45 | 324 | 0.9 | 0.9 | 0.00 | 0.00 | 0.00 | 71 | 1008.8 |
| 20260504081413 | 45 | 324 | 0.0 | 0.9 | 0.00 | 0.00 | 0.00 | 70 | 1008.9 |
| 20260504080908 | 45 | 324 | 0.9 | 0.9 | 0.00 | 0.00 | 0.00 | 71 | 1008.9 |
| 20260504080406 | 45 | 324 | 0.9 | 0.9 | 0.00 | 0.00 | 0.00 | 73 | 1008.9 |
| 20260504070333 | 46 | 324 | 0.0 | 0.0 | 0.00 | 0.00 | 0.00 | 71 | 1009.2 |
| 20260504050721 | 46 | 339 | 0.0 | 0.9 | 0.00 | 0.00 | 0.00 | 75 | 1009.2 |
| 20260504050218 | 45 | 340 | 0.0 | 0.0 | 0.00 | 0.00 | 0.00 | 74 | 1009.6 |
| 20260504045715 | 45 | 36 | 0.0 | 0.9 | 0.00 | 0.00 | 0.00 | 80 | 1009.6 |
| 20260504045215 | 45 | 312 | 0.0 | 0.0 | 0.00 | 0.00 | 0.00 | 77 | 1009.7 |
| 20260504044714 | 45 | 326 | 0.0 | 0.0 | 0.00 | 0.00 | 0.00 | 79 | 1009.6 |
| 20260504044211 | 45 | 325 | 0.0 | 0.0 | 0.00 | 0.00 | 0.00 | 81 | 1009.7 |
| 20260504043708 | 45 | 325 | 0.0 | 0.0 | 0.00 | 0.00 | 0.00 | 79 | 1009.5 |
| 20260504043204 | 45 | 325 | 0.0 | 0.0 | 0.00 | 0.00 | 0.00 | 79 | 1009.9 |
| 20260504042702 | 45 | 326 | 0.0 | 0.0 | 0.00 | 0.00 | 0.00 | 82 | 1009.7 |
| 20260504042158 | 44 | 326 | 0.0 | 0.0 | 0.00 | 0.00 | 0.00 | 77 | 1009.7 |
| 20260504041654 | 44 | 325 | 0.0 | 0.0 | 0.00 | 0.00 | 0.00 | 78 | 1009.7 |
| 20260504041150 | 44 | 325 | 0.0 | 0.0 | 0.00 | 0.00 | 0.00 | 81 | 1009.7 |
| 20260504040647 | 44 | 325 | 0.0 | 0.0 | 0.00 | 0.00 | 0.00 | 81 | 1009.6 |
| 20260504040144 | 44 | 326 | 0.0 | 0.0 | 0.00 | 0.00 | 0.00 | 78 | 1009.7 |
| 20260504035641 | 44 | 305 | 0.9 | 0.9 | 0.00 | 0.00 | 0.00 | 78 | 1009.7 |
| 20260504035138 | 44 | 308 | 0.0 | 0.0 | 0.00 | 0.00 | 0.00 | 78 | 1009.6 |
| 20260504034635 | 44 | 327 | 0.0 | 0.9 | 0.00 | 0.00 | 0.00 | 74 | 1009.2 |
| 20260504034132 | 44 | 341 | 0.0 | 0.0 | 0.00 | 0.00 | 0.00 | 76 | 1009.3 |
| 20260504033630 | 44 | 341 | 0.0 | 0.0 | 0.00 | 0.00 | 0.00 | 76 | 1009.6 |
| 20260504033127 | 44 | 341 | 0.0 | 0.0 | 0.00 | 0.00 | 0.00 | 77 | 1009.4 |
| 20260504032624 | 44 | 341 | 0.0 | 0.0 | 0.00 | 0.00 | 0.00 | 77 | 1009.4 |
| 20260504032121 | 44 | 341 | 0.0 | 0.9 | 0.00 | 0.00 | 0.00 | 78 | 1009.5 |
| 20260504031618 | 44 | 341 | 0.0 | 0.0 | 0.00 | 0.00 | 0.00 | 78 | 1009.4 |
| 20260504031114 | 44 | 341 | 0.0 | 0.0 | 0.00 | 0.00 | 0.00 | 79 | 1009.2 |
| 20260504030611 | 44 | 341 | 0.0 | 0.0 | 0.00 | 0.00 | 0.00 | 75 | 1009.4 |
| 20260504030108 | 44 | 341 | 0.0 | 0.0 | 0.00 | 0.00 | 0.00 | 74 | 1009.4 |
| 20260504025605 | 44 | 341 | 0.0 | 0.0 | 0.00 | 0.00 | 0.00 | 70 | 1009.6 |
| 20260504025102 | 44 | 341 | 0.0 | 0.0 | 0.00 | 0.00 | 0.00 | 69 | 1009.3 |
| 20260504024559 | 44 | 341 | 0.0 | 0.0 | 0.00 | 0.00 | 0.00 | 67 | 1009.4 |
| 20260504024055 | 44 | 341 | 0.0 | 0.0 | 0.00 | 0.00 | 0.00 | 66 | 1009.4 |
| 20260504023552 | 44 | 341 | 0.0 | 0.0 | 0.00 | 0.00 | 0.00 | 66 | 1009.4 |
| 20260504023048 | 44 | 341 | 0.0 | 0.0 | 0.00 | 0.00 | 0.00 | 64 | 1009.4 |
| 20260504022544 | 44 | 341 | 0.9 | 0.9 | 0.00 | 0.00 | 0.00 | 67 | 1009.4 |
| 20260504022040 | 44 | 341 | 0.9 | 0.9 | 0.00 | 0.00 | 0.00 | 65 | 1009.1 |
| 20260504021538 | 44 | 341 | 0.9 | 0.9 | 0.00 | 0.00 | 0.00 | 69 | 1009.3 |
| 20260504021035 | 44 | 341 | 0.0 | 0.0 | 0.00 | 0.00 | 0.00 | 67 | 1009.2 |
| 20260504020532 | 44 | 342 | 0.9 | 0.9 | 0.00 | 0.00 | 0.00 | 66 | 1009.4 |
| 20260504020028 | 44 | 341 | 0.0 | 0.0 | 0.00 | 0.00 | 0.00 | 69 | 1009.4 |
| 20260504015524 | 44 | 341 | 0.9 | 0.9 | 0.00 | 0.00 | 0.00 | 69 | 1009.5 |
| 20260504015020 | 44 | 341 | 0.9 | 0.9 | 0.00 | 0.00 | 0.00 | 65 | 1009.5 |
| 20260504014517 | 44 | 341 | 0.0 | 0.0 | 0.00 | 0.00 | 0.00 | 64 | 1009.3 |
| 20260504014014 | 44 | 331 | 0.0 | 0.0 | 0.00 | 0.00 | 0.00 | 60 | 1009.3 |
| 20260504013512 | 44 | 354 | 0.9 | 0.9 | 0.00 | 0.00 | 0.00 | 60 | 1009.2 |
| 20260504013009 | 44 | 340 | 0.9 | 0.9 | 0.00 | 0.00 | 0.00 | 57 | 1009.1 |
| 20260504012506 | 45 | 343 | 0.9 | 0.9 | 0.00 | 0.00 | 0.00 | 58 | 1009.1 |
| 20260504012004 | 45 | 311 | 0.9 | 0.9 | 0.00 | 0.00 | 0.00 | 59 | 1009.1 |
| 20260504011500 | 45 | 327 | 0.0 | 0.0 | 0.00 | 0.00 | 0.00 | 55 | 1009.0 |
| 20260504010956 | 45 | 339 | 0.0 | 0.0 | 0.00 | 0.00 | 0.00 | 58 | 1008.9 |
| 20260504010452 | 45 | 338 | 0.9 | 0.9 | 0.00 | 0.00 | 0.00 | 57 | 1008.9 |
| 20260504005948 | 45 | 346 | 0.0 | 0.0 | 0.00 | 0.00 | 0.00 | 58 | 1008.9 |
| 20260504005445 | 45 | 358 | 0.9 | 0.9 | 0.00 | 0.00 | 0.00 | 62 | 1008.5 |
| 20260504004943 | 46 | 351 | 0.9 | 0.9 | 0.00 | 0.00 | 0.00 | 54 | 1008.5 |
| 20260504004440 | 46 | 346 | 0.9 | 0.9 | 0.00 | 0.00 | 0.00 | 52 | 1008.7 |
| 20260504003937 | 47 | 329 | 0.9 | 0.9 | 0.00 | 0.00 | 0.00 | 51 | 1008.5 |
| 20260504003433 | 48 | 347 | 0.0 | 0.0 | 0.00 | 0.00 | 0.00 | 43 | 1008.4 |
| 20260504002930 | 48 | 5 | 0.9 | 0.9 | 0.00 | 0.00 | 0.00 | 45 | 1008.4 |
| 20260504002427 | 48 | 345 | 0.9 | 0.9 | 0.00 | 0.00 | 0.00 | 44 | 1008.4 |
| 20260504001924 | 49 | 343 | 0.9 | 0.9 | 0.00 | 0.00 | 0.00 | 44 | 1008.3 |
| 20260504001422 | 50 | 321 | 0.0 | 0.0 | 0.00 | 0.00 | 0.00 | 41 | 1007.9 |
| 20260504000918 | 50 | 328 | 0.0 | 0.9 | 0.00 | 0.00 | 0.00 | 41 | 1007.8 |
| 20260504000416 | 51 | 350 | 0.0 | 0.0 | 0.00 | 0.00 | 0.00 | 38 | 1008.0 |
| 20260503235913 | 51 | 359 | 1.7 | 1.7 | 0.00 | 0.00 | 0.00 | 40 | 1007.6 |
| 20260503235411 | 51 | 295 | 0.0 | 0.9 | 0.00 | 0.00 | 0.00 | 39 | 1007.4 |
| 20260503234908 | 50 | 312 | 0.0 | 0.9 | 0.00 | 0.00 | 0.00 | 42 | 1007.6 |
| 20260503234405 | 50 | 306 | 0.9 | 0.9 | 0.00 | 0.00 | 0.00 | 39 | 1007.4 |
| 20260503233903 | 49 | 31 | 1.7 | 1.7 | 0.00 | 0.00 | 0.00 | 44 | 1007.1 |
| 20260503233359 | 50 | 348 | 0.0 | 0.0 | 0.00 | 0.00 | 0.00 | 49 | 1007.1 |
| 20260503232855 | 50 | 348 | 0.0 | 0.9 | 0.00 | 0.00 | 0.00 | 43 | 1007.0 |
| 20260503232353 | 51 | 345 | 0.0 | 0.0 | 0.00 | 0.00 | 0.00 | 47 | 1007.0 |
| 20260503231851 | 51 | 31 | 1.7 | 1.7 | 0.00 | 0.00 | 0.00 | 48 | 1006.9 |
| 20260503231347 | 52 | 286 | 1.7 | 1.7 | 0.00 | 0.00 | 0.00 | 36 | 1006.9 |
| 20260503230844 | 53 | 333 | 0.9 | 0.9 | 0.00 | 0.00 | 0.00 | 38 | 1006.9 |
| 20260503230340 | 52 | 328 | 0.0 | 0.9 | 0.00 | 0.00 | 0.00 | 39 | 1007.0 |
| 20260503225838 | 52 | 20 | 0.9 | 0.9 | 0.00 | 0.00 | 0.00 | 40 | 1006.7 |
| 20260503225334 | 53 | 340 | 0.9 | 0.9 | 0.00 | 0.00 | 0.00 | 37 | 1006.8 |
| 20260503224831 | 53 | 356 | 0.9 | 0.9 | 0.00 | 0.00 | 0.00 | 38 | 1006.6 |
| 20260503224328 | 53 | 228 | 1.7 | 1.7 | 0.00 | 0.00 | 0.00 | 34 | 1006.7 |
| 20260503223826 | 53 | 7 | 0.9 | 1.7 | 0.00 | 0.00 | 0.00 | 33 | 1006.5 |
| 20260503223323 | 53 | 258 | 1.7 | 1.7 | 0.00 | 0.00 | 0.00 | 35 | 1006.9 |
| 20260503222818 | 53 | 282 | 0.9 | 0.9 | 0.00 | 0.00 | 0.00 | 36 | 1006.7 |
| 20260503222317 | 54 | 130 | 0.9 | 0.9 | 0.00 | 0.00 | 0.00 | 34 | 1006.9 |
| 20260503221815 | 54 | 292 | 0.9 | 1.7 | 0.00 | 0.00 | 0.00 | 34 | 1006.7 |
| 20260503221314 | 54 | 337 | 0.9 | 0.9 | 0.00 | 0.00 | 0.00 | 35 | 1006.8 |
| 20260503220809 | 54 | 293 | 0.9 | 1.7 | 0.00 | 0.00 | 0.00 | 39 | 1006.7 |
| 20260503220306 | 53 | 226 | 0.9 | 0.9 | 0.00 | 0.00 | 0.00 | 35 | 1006.6 |
| 20260503215803 | 53 | 349 | 0.9 | 0.9 | 0.00 | 0.00 | 0.00 | 35 | 1006.9 |
| 20260503215259 | 53 | 3 | 1.7 | 1.7 | 0.00 | 0.00 | 0.00 | 35 | 1006.8 |
| 20260503214758 | 54 | 278 | 0.0 | 0.9 | 0.00 | 0.00 | 0.00 | 36 | 1006.9 |
| 20260503214254 | 54 | 167 | 0.9 | 1.7 | 0.00 | 0.00 | 0.00 | 36 | 1006.9 |
| 20260503213752 | 54 | 262 | 2.6 | 4.3 | 0.00 | 0.00 | 0.00 | 34 | 1006.8 |
| 20260503213249 | 54 | 144 | 4.3 | 5.2 | 0.00 | 0.00 | 0.00 | 37 | 1006.8 |
| 20260503212746 | 54 | 348 | 2.6 | 2.6 | 0.00 | 0.00 | 0.00 | 37 | 1007.0 |
| 20260503212244 | 54 | 280 | 0.9 | 1.7 | 0.00 | 0.00 | 0.00 | 38 | 1006.8 |
| 20260503211741 | 54 | 179 | 1.7 | 2.6 | 0.00 | 0.00 | 0.00 | 39 | 1006.8 |
| 20260503211238 | 54 | 289 | 4.3 | 5.2 | 0.00 | 0.00 | 0.00 | 38 | 1006.9 |
| 20260503210733 | 54 | 294 | 1.7 | 1.7 | 0.00 | 0.00 | 0.00 | 37 | 1007.1 |
| 20260503210231 | 54 | 140 | 4.3 | 7.0 | 0.00 | 0.00 | 0.00 | 37 | 1006.9 |
| 20260503205726 | 53 | 306 | 0.9 | 0.9 | 0.00 | 0.00 | 0.00 | 38 | 1007.0 |
| 20260503205222 | 53 | 21 | 2.6 | 4.3 | 0.00 | 0.00 | 0.00 | 37 | 1007.1 |
| 20260503204719 | 53 | 118 | 2.6 | 2.6 | 0.00 | 0.00 | 0.00 | 40 | 1007.2 |
| 20260503204217 | 53 | 308 | 0.0 | 0.0 | 0.00 | 0.00 | 0.00 | 41 | 1007.1 |
| 20260503203713 | 53 | 70 | 1.7 | 4.3 | 0.00 | 0.00 | 0.00 | 40 | 1007.1 |
| 20260503203211 | 53 | 285 | 0.9 | 0.9 | 0.00 | 0.00 | 0.00 | 41 | 1007.4 |
| 20260503202708 | 53 | 28 | 0.9 | 1.7 | 0.00 | 0.00 | 0.00 | 39 | 1007.2 |
| 20260503202206 | 53 | 140 | 2.6 | 2.6 | 0.00 | 0.00 | 0.00 | 39 | 1007.3 |
| 20260503201704 | 53 | 271 | 1.7 | 2.6 | 0.00 | 0.00 | 0.00 | 40 | 1007.3 |
| 20260503201201 | 52 | 257 | 1.7 | 1.7 | 0.00 | 0.00 | 0.00 | 41 | 1007.3 |
| 20260503200657 | 52 | 195 | 2.6 | 2.6 | 0.00 | 0.00 | 0.00 | 40 | 1007.5 |
| 20260503200154 | 52 | 344 | 1.7 | 1.7 | 0.00 | 0.00 | 0.00 | 39 | 1007.3 |
| 20260503195650 | 52 | 225 | 1.7 | 1.7 | 0.00 | 0.00 | 0.00 | 44 | 1007.6 |
| 20260503195147 | 53 | 83 | 1.7 | 1.7 | 0.00 | 0.00 | 0.00 | 41 | 1007.6 |
| 20260503194644 | 53 | 328 | 0.0 | 0.0 | 0.00 | 0.00 | 0.00 | 43 | 1007.7 |
| 20260503194140 | 52 | 327 | 1.7 | 1.7 | 0.00 | 0.00 | 0.00 | 42 | 1007.6 |
| 20260503193637 | 51 | 93 | 2.6 | 4.3 | 0.00 | 0.00 | 0.00 | 41 | 1007.6 |
| 20260503193132 | 52 | 152 | 2.6 | 2.6 | 0.00 | 0.00 | 0.00 | 42 | 1007.9 |
| 20260503192628 | 51 | 289 | 1.7 | 2.6 | 0.00 | 0.00 | 0.00 | 43 | 1008.0 |
| 20260503192124 | 52 | 114 | 0.9 | 2.6 | 0.00 | 0.00 | 0.00 | 43 | 1008.2 |
| 20260503191621 | 52 | 294 | 1.7 | 1.7 | 0.00 | 0.00 | 0.00 | 41 | 1007.9 |
| 20260503191118 | 51 | 311 | 0.0 | 0.9 | 0.00 | 0.00 | 0.00 | 43 | 1008.2 |
| 20260503190615 | 51 | 231 | 2.6 | 4.3 | 0.00 | 0.00 | 0.00 | 41 | 1008.2 |
| 20260503190112 | 51 | 275 | 0.0 | 0.9 | 0.00 | 0.00 | 0.00 | 43 | 1008.3 |
| 20260503185608 | 51 | 280 | 2.6 | 4.3 | 0.00 | 0.00 | 0.00 | 41 | 1008.0 |
| 20260503185108 | 51 | 52 | 2.6 | 2.6 | 0.00 | 0.00 | 0.00 | 41 | 1008.4 |
| 20260503184604 | 51 | 139 | 2.6 | 4.3 | 0.00 | 0.00 | 0.00 | 41 | 1008.3 |
| 20260503184101 | 50 | 326 | 1.7 | 1.7 | 0.00 | 0.00 | 0.00 | 42 | 1008.5 |
| 20260503183557 | 50 | 324 | 0.9 | 0.9 | 0.00 | 0.00 | 0.00 | 43 | 1008.3 |
| 20260503183055 | 51 | 220 | 0.9 | 1.7 | 0.00 | 0.00 | 0.00 | 44 | 1008.5 |
| 20260503182553 | 51 | 159 | 1.7 | 1.7 | 0.00 | 0.00 | 0.00 | 43 | 1008.3 |
| 20260503182051 | 51 | 225 | 3.5 | 6.1 | 0.00 | 0.00 | 0.00 | 43 | 1008.6 |
| 20260503181547 | 51 | 277 | 2.6 | 2.6 | 0.00 | 0.00 | 0.00 | 42 | 1008.5 |
| 20260503181044 | 50 | 305 | 0.9 | 0.9 | 0.00 | 0.00 | 0.00 | 43 | 1008.6 |
| 20260503180541 | 50 | 2 | 0.9 | 0.9 | 0.00 | 0.00 | 0.00 | 45 | 1008.5 |
| 20260503180038 | 50 | 22 | 3.5 | 4.3 | 0.00 | 0.00 | 0.00 | 41 | 1008.6 |
| 20260503175536 | 51 | 326 | 0.9 | 0.9 | 0.00 | 0.00 | 0.00 | 46 | 1008.8 |
| 20260503175033 | 50 | 274 | 1.7 | 2.6 | 0.00 | 0.00 | 0.00 | 42 | 1008.5 |
| 20260503174530 | 49 | 207 | 1.7 | 1.7 | 0.00 | 0.00 | 0.00 | 44 | 1008.6 |
| 20260503174026 | 49 | 302 | 3.5 | 5.2 | 0.00 | 0.00 | 0.00 | 41 | 1008.7 |
| 20260503173521 | 49 | 210 | 0.9 | 0.9 | 0.00 | 0.00 | 0.00 | 42 | 1008.7 |
| 20260503173017 | 49 | 252 | 2.6 | 4.3 | 0.00 | 0.00 | 0.00 | 43 | 1008.9 |
| 20260503172516 | 50 | 23 | 0.0 | 1.7 | 0.00 | 0.00 | 0.00 | 42 | 1008.7 |
| 20260503172012 | 50 | 291 | 1.7 | 1.7 | 0.00 | 0.00 | 0.00 | 41 | 1008.5 |
| 20260503171509 | 50 | 61 | 1.7 | 2.6 | 0.00 | 0.00 | 0.00 | 44 | 1008.5 |
| 20260503171006 | 49 | 304 | 0.9 | 1.7 | 0.00 | 0.00 | 0.00 | 45 | 1008.5 |
| 20260503170502 | 49 | 139 | 4.3 | 7.8 | 0.00 | 0.00 | 0.00 | 43 | 1008.6 |
| 20260503150855 | 49 | 50 | 2.6 | 2.6 | 0.00 | 0.00 | 0.00 | 51 | 1008.7 |
| 20260503150351 | 50 | 328 | 0.9 | 0.9 | 0.00 | 0.00 | 0.00 | 48 | 1008.8 |
| 20260503140315 | 48 | 47 | 4.3 | 5.2 | 0.00 | 0.00 | 0.00 | 56 | 1009.3 |
| 20260503131244 | 46 | 316 | 0.9 | 1.7 | 0.00 | 0.00 | 0.00 | 68 | 1009.6 |
| 20260503130742 | 46 | 218 | 2.6 | 2.6 | 0.00 | 0.00 | 0.00 | 66 | 1009.7 |
| 20260503130239 | 46 | 325 | 0.9 | 1.7 | 0.00 | 0.00 | 0.00 | 68 | 1009.7 |